Regional Weather Roundup
Issued by NWS Albany, NY

Home | Current Version | Previous Version | Text Only | Print | Product List | Glossary On
Versions: 1 2 3 4 5 6 7 8 9 10 11 12 13 14 15 16 17 18 19 20 21 22 23 24 25 26 27 28 29 30 31 32 33 34 35 36 37 38 39 40 41 42 43 44 45 46 47 48 49 50
000
ASUS41 KALY 201010
RWRALY

NEW YORK STATE HOURLY WEATHER ROUNDUP
NATIONAL WEATHER SERVICE ALBANY NY
500 AM EST FRI JAN 20 2017

NOTE: "FAIR" INDICATES FEW OR NO CLOUDS BELOW 12,000 FEET WITH NO
SIGNIFICANT WEATHER AND/OR NO OBSTRUCTIONS TO VISIBILITY.

NYZ032-033-038>043-046>054-057>066-NYZ062>081-082-084-201100-
EAST


CITY           SKY/WX    TMP DP  RH WIND       PRES   REMARKS
ALBANY         CLOUDY    34  31  88 CALM      30.01F
GLENS FALLS    CLOUDY    34  30  85 CALM      30.00S
POUGHKEEPSIE   CLOUDY    36  30  79 CALM      30.01F
NEWBURGH       CLOUDY    37  30  75 CALM      30.01F
MONTGOMERY     CLOUDY    37  32  82 CALM      29.99F
WHITE PLAINS   CLOUDY    38  29  70 N3        30.00F
ISLIP          CLOUDY    40  32  73 NW3       30.01F
NEW YORK CITY  CLOUDY    41  31  67 NE6       30.01F
CENTRAL PARK   CLOUDY    40  31  70 NE5       30.03F
$$

NYZ005>009-017-018-044>046-055-056-201100-
CENTRAL


CITY           SKY/WX    TMP DP  RH WIND       PRES   REMARKS
FULTON         CLOUDY    35  31  85 E5        29.95F WCI  31
SYRACUSE       CLOUDY    34  32  92 SE8       29.95F WCI  27
ROME           CLOUDY    33  33 100 SE3       29.99F
ELMIRA         CLOUDY    37  31  78 SE6       29.91F WCI  32
BINGHAMTON     CLOUDY    30  29  96 SE7       29.91F WCI  23
MONTICELLO     CLOUDY    34  30  86 CALM      29.97F
$$

NYZ026>034-041>043-087-201100-
NORTH


CITY           SKY/WX    TMP DP  RH WIND       PRES   REMARKS
WATERTOWN      CLOUDY    35  33  92 S5        29.96F WCI  31
FORT DRUM      NOT AVBL
OGDENSBURG     CLOUDY    34  34  99 CALM      29.97F
MASSENA        CLOUDY    33  32  96 CALM      30.00F
SARANAC LAKE   CLOUDY    30  26  85 SW10      29.92R WCI  21
PLATTSBURGH    CLOUDY    33  30  88 CALM      29.99F
$$

NYZ001>004-010>016-019>021-085-201100-
WEST


CITY           SKY/WX    TMP DP  RH WIND       PRES   REMARKS
NIAGARA FALLS  CLOUDY    36  32  85 E6        29.86F FOG     WCI  31
BUFFALO        CLOUDY    36  34  92 E3        29.85F
DUNKIRK        FOG       29  28  96 NE5       29.83F VSB 1/2 WCI  24
JAMESTOWN      CLOUDY    32  30  93 SE7       29.80F VSB 1/4 WCI  26
WELLSVILLE     FOG       33  31  92 S7        29.85F VSB 3/4 WCI  27
ROCHESTER      CLOUDY    36  33  89 SE7       29.89F WCI  30
PENN YAN       CLOUDY    36  30  79 SE3       29.89F
$$

             KEY
       WCI = WIND CHILL INDEX
       VSB = VISIBILITY
       HX  = HEAT INDEX
$$



USA.gov is the U.S. government's official web portal to all federal, state and local government web resources and services.